Orbital Elements at Epoch 2459200.5 (2020-Dec-17.0) TDB
Reference: JPL 23 (heliocentric ecliptic J2000)
Element | Value | Uncertainty (1-sigma) | Units |
e | .1531305665743088 | 1.8242e-07 | |
a | 2.532617252390019 | 8.8247e-09 | au |
q | 2.144796137615666 | 4.6535e-07 | au |
i | 4.61367884168983 | 6.3173e-06 | deg |
node | 317.0797241522588 | 3.7025e-05 | deg |
peri | 168.625493157004 | 4.8364e-05 | deg |
M | 70.97493259017403 | 1.9468e-05 | deg |
tp | 2458910.261342658955 (2020-Mar-01.76134266) | 7.9994e-05 | TDB |
period | 1472.15239000088 4.03 | 7.6944e-06 2.107e-08 | d yr |
n | .2445399011985335 | 1.2781e-09 | deg/d |
Q | 2.920438367164372 | 1.0176e-08 | au |
|
| | Orbit Determination Parameters
Additional Information
|